* Astronomy

Members Login
Username 
 
Password 
    Remember Me  
Post Info TOPIC: Asteroid 2012 FG58


L

Posts: 131433
Date:
RE: Asteroid 2012 FG58
Permalink  
 


Orbital elements:
2012 FG58                                           PHA, Earth MOID = 0.0418 AU
Epoch 2014 Dec. 9.0 TT = JDT 2457000.5                  MPC
M 291.06148              (2000.0)            P               Q
n   0.31295837     Peri.  220.46711     -0.29626418     +0.94664131
a   2.1485477      Node    32.88389     -0.80484531     -0.17591809
e   0.5460378      Incl.   13.51417     -0.51424854     -0.27004270
P   3.15           H   22.0           G   0.15           U   0

MPEC 2015 - D67



__________________


L

Posts: 131433
Date:
Permalink  
 

Orbital elements:
2012 FG58                                           PHA, Earth MOID = 0.0364 AU
Epoch 2012 Mar. 14.0 TT = JDT 2456000.5                 MPC
M 337.72084              (2000.0)            P               Q
n   0.31506007     Peri.  220.42337     -0.29533682     +0.94685326
a   2.1389820      Node    32.98631     -0.80503771     -0.17479369
e   0.5465878      Incl.   13.53891     -0.51448075     -0.27002976
P   3.13           H   21.8           G   0.15           U   7

MPEC 2012 - F110

The 110 - 240 metre wide asteroid 2012 FG58 will make a close pass (25.4 lunar distances, 0.0653 AU), travelling at 13.57 km/second, to the Earth-Moon system on the 23rd April, 2012 @ 23:28 UT ±02:21.

See more

The Lunar Distance (LD), the distance between Earth and the Moon, equals 384,401 km, (or 0.00256 AU).



__________________
Page 1 of 1  sorted by
 
Quick Reply

Please log in to post quick replies.



Create your own FREE Forum
Report Abuse
Powered by ActiveBoard